Location: Newark
(25.4297°S, 49.2719°W)
Time: 08:05:35
(UTC+00:00)

Vanguard 1 Rocket - Pass Details

Date: 20 November 2019
Orbit: 650 x 4226 km, 34.3° (Epoch: 11 December)

Event Time Altitude Azimuth Distance (km) Brightness Sun altitude
Rises 19:58:03 0° 263° (W) 7,900 13.7 22.5°
Reaches altitude 10° 20:03:13 10° 259° (W) 7,137 14.2 21.3°
Maximum altitude 20:29:49 68° 176° (S) 4,206 11.1 15.5°
Drops below altitude 10° 20:50:03 10° 94° (E) 5,706 10.9 11.1°
Sets 20:53:36 0° 90° (E) 6,339 11.1 10.3°
